Header for Extended Forecast Station List Page

Search by: ID | Name | Date | Parm | Value | Avg | % Avg
Sort by: ID | Name | Date | Parm | Value | Avg | % Avg

Enter search or view all records.

Click on id for station plot
#IDNameDateParmValueAvg% Avg
0LEOI1KOOTENAI-AT LEONIA09-21-2020DISCHARGE (KAF)26271738151
1FCFM8NF FLATHEAD-NEAR COLUMBIA FALLS09-21-2020DISCHARGE (KAF)13720965
2WGCM8MF FLATHEAD-NEAR WEST GLACIER09-21-2020DISCHARGE (KAF)7818143
3CFMM8FLATHEAD-AT COLUMBIA FALLS09-21-2020DISCHARGE (KAF)861123370
4DLGM8CLARK FORK-AT DEER LODGE09-21-2020DISCHARGE (KAF)7463117
5DRMM8CLARK FORK-NR DRUMMOND09-21-2020DISCHARGE (KAF)154MM
6RCCM8ROCK CREEK-NEAR CLINTON09-21-2020DISCHARGE (KAF)6853127
7BONM8BLACKFOOT-NEAR BONNER09-21-2020DISCHARGE (KAF)13714396
8ABOM8CLARK FORK-ABOVE MISSOULA09-21-2020DISCHARGE (KAF)373360104
9BITM8BITTERROOT-NEAR MISSOULA09-21-2020DISCHARGE (KAF)18523579
10BELM8CLARK FORK-BELOW MISSOULA09-21-2020DISCHARGE (KAF)55760292
11STRM8ST. REGIS-NEAR ST. REGIS09-21-2020DISCHARGE (KAF)203457
12SRGM8CLARK FORK-AT ST REGIS09-21-2020DISCHARGE (KAF)68577788
13PRTI1PRIEST-NEAR PRIEST RIVER09-21-2020DISCHARGE (KAF)8822040
14SPOW1SPOKANE-AT SPOKANE09-21-2020DISCHARGE (KAF)504MM
15SATI1ST MARIES-NEAR SANTA09-21-2020DISCHARGE (KAF)202481
16CIBW1COLUMBIA-AT INTL BOUNDARY09-21-2020DISCHARGE (KAF)18399MM
17LAUW1KETTLE-AT LAURIER09-21-2020DISCHARGE (KAF)144128112
18TONW1OKANOGAN-NEAR TONASKET09-21-2020DISCHARGE (KAF)358278129
19PATW1METHOW-NEAR PATEROS09-21-2020DISCHARGE (KAF)112101111
20ARDW1ENTIAT-NEAR ARDENVOIR09-21-2020DISCHARGE (KAF)2922132
21PESW1WENATCHEE-AT PESHASTIN09-21-2020DISCHARGE (KAF)367273134
22EASW1YAKIMA-AT EASTON09-21-2020DISCHARGE (KAF)496082
23TNAW1TEANAWAY-BELOW FORKS09-21-2020DISCHARGE (KAF)222878
24UMTW1YAKIMA-AT UMTANUM09-21-2020DISCHARGE (KAF)21726781
25CLFW1NACHES-NEAR CLIFFDEL09-21-2020DISCHARGE (KAF)859292
26NACW1NACHES-NEAR NACHES09-21-2020DISCHARGE (KAF)9273127
27PARW1YAKIMA-NEAR PARKER09-21-2020DISCHARGE (KAF)31535689
28KIOW1YAKIMA-AT KIONA09-21-2020DISCHARGE (KAF)56661093
29CHEI1FALL RIVER-NEAR CHESTER09-21-2020DISCHARGE (KAF)10410896
30ANTI1HENRYS FORK-AT ST. ANTHONY09-21-2020DISCHARGE (KAF)32533697
31TEAI1TETON-NEAR ST. ANTHONY09-21-2020DISCHARGE (KAF)11311895
32REXI1HENRYS FORK-AT REXBURG09-21-2020DISCHARGE (KAF)42242799
33JKSW4SNAKE-NEAR JACKSON09-21-2020DISCHARGE (KAF)485366133
34ALPW4SNAKE-NEAR ALPINE09-21-2020DISCHARGE (KAF)542459118
35HEII1SNAKE-NEAR HEISE09-21-2020DISCHARGE (KAF)741741100
36SIFI1SNAKE-AB EAGLE ROCK NR IDAHO FALLS09-21-2020DISCHARGE (KAF)875853103
37SHYI1SNAKE-NEAR SHELLEY09-21-2020DISCHARGE (KAF)880802110
38SNAI1SNAKE-AT BLACKFOOT09-21-2020DISCHARGE (KAF)733679108
39BFTI1SNAKE-NEAR BLACKFOOT09-21-2020DISCHARGE (KAF)754730103
40PIHI1PORTNEUF-AT POCATELLO09-21-2020DISCHARGE (KAF)545499
41MILI1SNAKE-AT MILNER09-21-2020DISCHARGE (KAF)94112
42HOTI1BRUNEAU-NEAR HOT SPRINGS09-21-2020DISCHARGE (KAF)212583
43SWAI1SNAKE-BELOW SWAN FALLS09-21-2020DISCHARGE (KAF)1857246675
44HWRI1BIG LOST-AT HOWELL RANCH NEAR CHILLY09-21-2020DISCHARGE (KAF)182477
45HALI1BIG WOOD-AT HAILEY09-21-2020DISCHARGE (KAF)264361
46BIGI1BOISE-AT GLENWOOD BRIDGE09-21-2020DISCHARGE (KAF)245047
47PARI1BOISE-NEAR PARMA09-21-2020DISCHARGE (KAF)16421975
48EMMI1PAYETTE-NEAR EMMETT09-21-2020DISCHARGE (KAF)32135291
49WSRI1WEISER-NEAR WEISER09-21-2020DISCHARGE (KAF)405672
50WEII1SNAKE-AT WEISER09-21-2020DISCHARGE (KAF)2782352079
51WHBI1SALMON-AT WHITEBIRD09-21-2020DISCHARGE (KAF)1034110793
52TRYO3GRANDE RONDE-TROY09-21-2020DISCHARGE (KAF)16124566
53ANAW1SNAKE-NEAR ANATONE09-21-2020DISCHARGE (KAF)3858533172
54ORFI1CLEARWATER-AT OROFINO09-21-2020DISCHARGE (KAF)41757473
55SPDI1CLEARWATER-AT SPALDING09-21-2020DISCHARGE (KAF)885138064
56TCHW1WALLA WALLA-NEAR TOUCHET09-21-2020DISCHARGE (KAF)8070113
57GIBO3UMATILLA-NEAR GIBBON09-21-2020DISCHARGE (KAF)222491
58PDTO3UMATILLA-AT PENDLETON09-21-2020DISCHARGE (KAF)484998
59MYKO3MCKAY CREEK-NEAR PILOT ROCK09-21-2020DISCHARGE (KAF)109112
60UMAO3UMATILLA-NEAR UMATILLA09-21-2020DISCHARGE (KAF)9948205
61MONO3NF JOHN DAY-AT MONUMENT09-21-2020DISCHARGE (KAF)486772
62SERO3JOHN DAY-AT SERVICE CK09-21-2020DISCHARGE (KAF)9713075
63MODO3DESCHUTES-AT MOODY NR BIGGS09-21-2020DISCHARGE (KAF)1093127686
64PITW1KLICKITAT-NEAR PITT09-21-2020DISCHARGE (KAF)19322785
65HODO3HOOD-NEAR TUCKER BRIDGE09-21-2020DISCHARGE (KAF)189180105
66UNDW1WHITE SALMON-NEAR UNDERWOOD09-21-2020DISCHARGE (KAF)13819870
67LYDM8KOOTENAI-LIBBY DAM09-21-2020INFLOW (KAF)988103695
68HHWM8SF FLATHEAD-HUNGRY HORSE DAM09-21-2020INFLOW (KAF)14624360
69KERM8FLATHEAD-SELI’Š KSANKA QLISPE’ DAM09-21-2020INFLOW (KAF)989149966
70NOXM8CLARK FORK-NOXON RAPIDS DAM09-21-2020INFLOW (KAF)2453335273
71CABI1CLARK FORK-CABINET GORGE DAM09-21-2020INFLOW (KAF)2687347977
72ALFW1PEND OREILLE-ALBENI FALLS DAM09-21-2020INFLOW (KAF)2893400272
73COEI1COEUR D ALENE-COEUR D ALENE LAKE09-21-2020INFLOW (KAF)32847469
74LLKW1SPOKANE-AT LONGLAKE09-21-2020INFLOW (KAF)68492674
75GCDW1COLUMBIA-GRAND COULEE DAM09-21-2020INFLOW (KAF)1931817396111
76CHJW1COLUMBIA-CHIEF JOSEPH DAM09-21-2020INFLOW (KAF)1998419990100
77WELW1COLUMBIA-WELLS DAM09-21-2020INFLOW (KAF)2045920325101
78CHDW1CHELAN-LAKE CHELAN DAM09-21-2020INFLOW (KAF)299158190
79RRHW1COLUMBIA-ROCKY REACH DAM09-21-2020INFLOW (KAF)2095920808101
80WANW1COLUMBIA-WANAPUM DAM09-21-2020INFLOW (KAF)2137019065112
81PRWW1COLUMBIA-PRIEST RAPIDS DAM09-21-2020INFLOW (KAF)2140919361111
82KEDW1YAKIMA-KEECHELUS LAKE09-21-2020INFLOW (KAF)5546120
83KADW1KACHESS-KACHESS DAM09-21-2020INFLOW (KAF)4037108
84CLUW1CLE ELUM-CLE ELUM LAKE09-21-2020INFLOW (KAF)12092130
85BUDW1BUMPING-BUMPING LAKE DAM09-21-2020INFLOW (KAF)283190
86RILW1TIETON-RIMROCK LAKE NEAR RIMROCK09-21-2020INFLOW (KAF)576292
87IPDI1HENRYS FORK-ISLAND PARK DAM09-21-2020INFLOW (KAF)131122107
88JLKW4SNAKE-JACKSON LAKE AT DAM09-21-2020INFLOW (KAF)8311274
89PLDI1SF SNAKE-PALISADES DAM09-21-2020INFLOW (KAF)817723113
90RIDI1WILLOW CREEK-RIRIE DAM09-21-2020INFLOW (KAF)6877
91AFRI1SNAKE-AMERICAN FALLS RESERVOIR09-21-2020INFLOW (KAF)14261417101
92MACI1BIG LOST-MACKAY RESERVOIR NEAR MACKAY09-21-2020INFLOW (KAF)339389
93MAGI1BIG WOOD-MAGIC DAM09-21-2020INFLOW (KAF)122745
94LWRI1LITTLE WOOD-LITTLE WOOD DAM09-21-2020INFLOW (KAF)111573
95OWYO3OWYHEE-OWYHEE DAM09-21-2020INFLOW (KAF)616791
96ARAI1SF BOISE-ANDERSON RANCH DAM09-21-2020INFLOW (KAF)677294
97LUCI1BOISE-LUCKY PEAK DAM09-21-2020INFLOW (KAF)37MM
98WRMO3MALHEUR-WARM SPRINGS DAM09-21-2020INFLOW (KAF)1913142
99BERO3MALHEUR-AGENCY VALLEY DAM09-21-2020INFLOW (KAF)111385
100BULO3BULLY CREEK-BULLY CREEK DAM09-21-2020INFLOW (KAF)0116
101CSDI1NF PAYETTE-CASCADE DAM09-21-2020INFLOW (KAF)829091
102DEDI1DEADWOOD-NEAR LOWMAN09-21-2020INFLOW (KAF)151983
103BRNI1SNAKE-BROWNLEE DAM09-21-2020INFLOW (KAF)2940358882
104DWRI1NF CLEARWATER-DWORSHAK DAM09-21-2020INFLOW (KAF)29743369
105LGDW1SNAKE-LOWER GRANITE DAM09-21-2020INFLOW (KAF)4743688369
106LGSW1SNAKE-LITTLE GOOSE DAM09-21-2020INFLOW (KAF)4743692269
107LMNW1SNAKE-LOWER MONUMENTAL DAM09-21-2020INFLOW (KAF)4770696069
108IHDW1SNAKE-ICE HARBOR DAM09-21-2020INFLOW (KAF)4772687869
109MCDW1COLUMBIA-MCNARY DAM09-21-2020INFLOW (KAF)267032777496
110JDAO3COLUMBIA-JOHN DAY DAM09-21-2020INFLOW (KAF)276002847297
111TDAO3COLUMBIA-THE DALLES DAM09-21-2020INFLOW (KAF)281703113390
112BONO3COLUMBIA-BONNEVILLE DAM09-21-2020INFLOW (KAF)286823281087
113HOPI1PEND OREILLE-PEND OREILLE LAKE NR HOPE09-21-2020LAKE ELEVATION (FT)MMM
114BFEI1KOOTENAI-AT BONNERS FERRY09-21-2020STAGE (FT)MMM
115SJMI1ST JOE-AT ST MARIES09-21-2020STAGE (FT)MMM